Location: Unspecified
(0.0000°N, 0.0000°E)
Time: 04:56:16
(UTC+00:00)

CUTE 1.7 + AOD 2 - Pass Details

Date: 25 May 2026
Orbit: 531 x 545 km, 97.8° (Epoch: 11 June)

Event Time Altitude Azimuth Distance (km) Brightness Sun altitude
Rises 04:58:12 0° 340° (NNW) 2,661 ? -13.7°
Reaches altitude 10° 05:01:07 10° 315° (NW) 1,778 ? -13.0°
Enters shadow 05:03:13 14° 282° (WNW) 1,527 ? -12.5°
